User: anonymous   Login
Location: Unspecified
(0.0000°N, 0.0000°E)
Time: 21:50:19
(UTC+00:00)
Language:

POSAT 1 - Orbit

View from above orbital plane
View from above orbital plane
View from above satellite
View from above satellite

Ground track
Ground track

The orbit data is extracted from the following two-line orbital elements,

1 22829U 93061G   18146.17688837  .00000002  00000-0  18284-4 0  9999
2 22829  98.8482 123.5894 0009816   5.3047  57.6746 14.31002829287124
Epoch (UTC): 26 May 2018 04:14:43
Eccentricity: 0.0009816
inclination: 98.8482°
perigee height: 781 km
apogee height: 795 km
right ascension of ascending node: 123.5894°
argument of perigee: 5.3047°
revolutions per day: 14.31002829
mean anomaly at epoch: 57.6746°
orbit number at epoch: 28712

The dashed part of the orbit path shows where the satellite is in the earth's shadow,  

DLR